TimeCST,TemperatureF,Dew PointF,Humidity,Sea Level PressureIn,VisibilityMPH,Wind Direction,Wind SpeedMPH,Gust SpeedMPH,PrecipitationIn,Events,Conditions,WindDirDegrees,DateUTC
12:15 AM,50.2,48.4,94,29.88,7.0,ESE,6.9,-,N/A,,Clear,110,2012-12-07 06:15:00
12:35 AM,50.0,48.2,94,29.87,7.0,ESE,5.8,-,N/A,,Clear,120,2012-12-07 06:35:00
12:55 AM,50.0,48.2,94,29.87,7.0,ESE,6.9,-,N/A,,Clear,120,2012-12-07 06:55:00
1:15 AM,50.0,48.6,95,29.86,7.0,ESE,8.1,-,N/A,,Clear,120,2012-12-07 07:15:00
1:35 AM,50.0,48.6,95,29.86,7.0,ESE,6.9,-,N/A,,Scattered Clouds,110,2012-12-07 07:35:00
1:55 AM,50.9,49.3,94,29.85,7.0,ESE,9.2,-,N/A,,Overcast,120,2012-12-07 07:55:00
2:15 AM,51.4,49.6,94,29.86,7.0,ESE,8.1,-,N/A,,Overcast,110,2012-12-07 08:15:00
2:35 AM,51.8,50.0,94,29.86,7.0,ESE,8.1,-,N/A,,Overcast,120,2012-12-07 08:35:00
2:55 AM,52.2,50.5,94,29.85,4.0,SE,10.4,-,N/A,,Overcast,130,2012-12-07 08:55:00
3:15 AM,52.0,50.9,96,29.85,1.5,ESE,6.9,-,N/A,,Overcast,120,2012-12-07 09:15:00
3:35 AM,52.2,51.1,96,29.85,0.8,SE,5.8,-,N/A,,Overcast,140,2012-12-07 09:35:00
3:55 AM,52.2,51.3,97,29.85,1.0,SE,6.9,-,N/A,,Overcast,130,2012-12-07 09:55:00
4:15 AM,52.7,51.8,97,29.84,1.0,ESE,8.1,-,N/A,,Overcast,120,2012-12-07 10:15:00
4:35 AM,52.7,51.8,97,29.85,1.0,ESE,5.8,-,N/A,,Overcast,110,2012-12-07 10:35:00
4:55 AM,52.7,51.8,97,29.84,0.8,ESE,5.8,-,N/A,,Overcast,110,2012-12-07 10:55:00
5:15 AM,52.7,51.8,97,29.84,1.0,SE,5.8,-,N/A,,Overcast,130,2012-12-07 11:15:00
5:35 AM,52.7,52.0,97,29.84,1.0,ESE,5.8,-,N/A,,Overcast,120,2012-12-07 11:35:00
5:55 AM,53.1,52.3,97,29.84,1.5,SSE,4.6,-,N/A,,Overcast,150,2012-12-07 11:55:00
6:15 AM,53.6,52.7,97,29.84,2.0,ESE,4.6,-,N/A,,Overcast,110,2012-12-07 12:15:00
6:35 AM,53.6,52.9,97,29.85,2.0,SE,3.5,-,N/A,,Overcast,130,2012-12-07 12:35:00
6:55 AM,54.0,53.2,97,29.86,2.5,Calm,Calm,-,N/A,,Overcast,0,2012-12-07 12:55:00
7:15 AM,54.0,53.2,97,29.85,2.5,ESE,4.6,-,N/A,,Overcast,110,2012-12-07 13:15:00
7:35 AM,54.5,53.6,97,29.86,2.5,ESE,4.6,-,N/A,,Overcast,120,2012-12-07 13:35:00
7:55 AM,54.7,53.8,97,29.86,1.8,SE,3.5,-,N/A,,Overcast,130,2012-12-07 13:55:00
8:15 AM,54.9,54.0,97,29.86,1.8,SE,4.6,-,N/A,,Overcast,130,2012-12-07 14:15:00
8:35 AM,55.4,54.5,97,29.86,2.0,ESE,6.9,-,N/A,,Overcast,120,2012-12-07 14:35:00
8:55 AM,56.3,54.7,94,29.85,2.5,SSE,5.8,-,N/A,,Overcast,150,2012-12-07 14:55:00
9:15 AM,56.8,55.2,94,29.86,3.0,SSE,5.8,-,N/A,,Overcast,150,2012-12-07 15:15:00
9:35 AM,57.6,55.4,92,29.87,4.0,SSE,5.8,-,N/A,,Overcast,150,2012-12-07 15:35:00
9:55 AM,58.6,55.6,90,29.86,4.0,South,4.6,-,N/A,,Overcast,170,2012-12-07 15:55:00
10:15 AM,59.0,55.4,88,29.86,5.0,South,4.6,-,N/A,,Overcast,170,2012-12-07 16:15:00
10:35 AM,59.9,55.4,85,29.86,7.0,SSE,8.1,-,N/A,,Overcast,160,2012-12-07 16:35:00
10:55 AM,60.8,54.7,80,29.86,7.0,South,5.8,-,N/A,,Overcast,170,2012-12-07 16:55:00
11:15 AM,63.1,54.7,74,29.85,7.0,SSE,5.8,-,N/A,,Mostly Cloudy,160,2012-12-07 17:15:00
11:35 AM,64.8,52.5,64,29.84,10.0,South,6.9,-,N/A,,Mostly Cloudy,170,2012-12-07 17:35:00
11:55 AM,66.4,52.5,61,29.83,10.0,South,9.2,-,N/A,,Scattered Clouds,170,2012-12-07 17:55:00
12:15 PM,67.6,51.8,57,29.82,10.0,SSE,6.9,-,N/A,,Scattered Clouds,160,2012-12-07 18:15:00
12:35 PM,68.0,51.4,55,29.80,10.0,SSE,6.9,-,N/A,,Scattered Clouds,160,2012-12-07 18:35:00
12:55 PM,69.1,50.9,52,29.80,10.0,North,-9999.0,-,N/A,,Clear,0,2012-12-07 18:55:00
1:15 PM,70.2,50.5,50,29.79,10.0,SW,5.8,-,N/A,,Clear,220,2012-12-07 19:15:00
1:35 PM,70.5,50.0,48,29.78,10.0,SSW,5.8,-,N/A,,Clear,210,2012-12-07 19:35:00
1:55 PM,72.1,48.2,43,29.77,10.0,North,-9999.0,-,N/A,,Clear,0,2012-12-07 19:55:00
2:15 PM,72.7,45.9,38,29.77,10.0,North,-9999.0,-,N/A,,Clear,0,2012-12-07 20:15:00
2:35 PM,73.0,45.1,37,29.77,10.0,SSW,9.2,-,N/A,,Clear,210,2012-12-07 20:35:00
2:55 PM,72.7,43.7,35,29.77,10.0,SSW,9.2,17.3,N/A,,Clear,210,2012-12-07 20:55:00
3:15 PM,72.5,43.3,35,29.77,10.0,SSW,10.4,16.1,N/A,,Clear,210,2012-12-07 21:15:00
3:35 PM,72.0,42.3,34,29.77,10.0,SW,8.1,-,N/A,,Clear,230,2012-12-07 21:35:00
3:55 PM,71.6,41.2,33,29.77,10.0,North,-9999.0,-,N/A,,Clear,0,2012-12-07 21:55:00
4:15 PM,71.2,41.0,33,29.78,10.0,SW,8.1,-,N/A,,Clear,220,2012-12-07 22:15:00
4:35 PM,69.6,39.6,33,29.78,10.0,West,9.2,-,N/A,,Clear,270,2012-12-07 22:35:00
4:55 PM,68.0,39.6,35,29.79,10.0,WSW,5.8,-,N/A,,Clear,250,2012-12-07 22:55:00
5:15 PM,66.2,40.1,38,29.79,10.0,WNW,6.9,-,N/A,,Clear,290,2012-12-07 23:15:00
5:35 PM,64.4,42.3,44,29.80,10.0,West,5.8,-,N/A,,Clear,280,2012-12-07 23:35:00
5:55 PM,62.6,43.9,50,29.81,10.0,WNW,6.9,-,N/A,,Scattered Clouds,300,2012-12-07 23:55:00
6:15 PM,61.9,45.5,55,29.81,10.0,WNW,5.8,-,N/A,,Overcast,300,2012-12-08 00:15:00
6:35 PM,61.3,45.5,56,29.82,10.0,NW,5.8,-,N/A,,Overcast,310,2012-12-08 00:35:00
7:15 PM,60.4,45.0,57,29.83,10.0,NW,4.6,-,N/A,,Overcast,310,2012-12-08 01:15:00
7:35 PM,60.4,44.8,56,29.83,10.0,NW,4.6,-,N/A,,Overcast,310,2012-12-08 01:35:00
7:55 PM,60.3,45.1,57,29.83,10.0,NW,3.5,-,N/A,,Overcast,310,2012-12-08 01:55:00
8:15 PM,59.5,45.9,61,29.84,10.0,NW,4.6,-,N/A,,Overcast,310,2012-12-08 02:15:00
8:35 PM,59.0,46.4,63,29.85,10.0,Calm,Calm,-,N/A,,Overcast,0,2012-12-08 02:35:00
8:55 PM,57.9,46.6,66,29.85,10.0,WNW,3.5,-,N/A,,Overcast,300,2012-12-08 02:55:00
9:15 PM,57.2,46.6,68,29.85,10.0,WNW,3.5,-,N/A,,Overcast,290,2012-12-08 03:15:00
9:35 PM,56.3,46.6,70,29.86,10.0,WNW,4.6,-,N/A,,Mostly Cloudy,300,2012-12-08 03:35:00
9:55 PM,54.9,46.6,74,29.86,10.0,WNW,3.5,-,N/A,,Scattered Clouds,290,2012-12-08 03:55:00
10:15 PM,54.7,46.8,75,29.87,10.0,WNW,3.5,-,N/A,,Mostly Cloudy,290,2012-12-08 04:15:00
10:35 PM,53.6,46.4,77,29.87,10.0,NW,4.6,-,N/A,,Mostly Cloudy,310,2012-12-08 04:35:00
10:55 PM,53.2,46.8,79,29.87,10.0,NW,4.6,-,N/A,,Mostly Cloudy,320,2012-12-08 04:55:00
11:15 PM,52.9,46.8,80,29.87,10.0,NNW,4.6,-,N/A,,Scattered Clouds,330,2012-12-08 05:15:00
11:35 PM,52.5,46.8,81,29.88,10.0,NW,4.6,-,N/A,,Clear,310,2012-12-08 05:35:00
11:55 PM,53.1,47.3,81,29.88,10.0,NW,3.5,-,N/A,,Mostly Cloudy,310,2012-12-08 05:55:00